Probability
0 0 0 0 0 0 0 0 0 0 0 0 0 0 0 0 0 0 0 0 0 0 0 0 0 0 0 0 0 0 0 0 0 0 0 0 0 0 0 0 0 0 0 0 0 0 0 0 1
0 0 0 0 0 0 0 0 0 0 0 0 0 0 0 0 0 0 0 0 0 0 0 0 0 0 0 0 0 0 0 0 0 0 0 0 0 0 0 0 0 0 0 0 0 0 0 0 1
0 0 0 0 0 0 0 0 0 0 0 0 0 0 0 0 0 0 0 0 0 0 0 0 0 0 0 0 0 0 0 0 0 0 0 0 0 0 0 0 0 0 0 0 0 0 0 0 1
0 0 0 0 0 0 0 0 0 0 0 0 0 0 0 0 0 0 0 0 0 0 0 0 0 0 0 0 0 0 0 0 0 0 0 0 0 0 0 0 0 0 0 0 0 0 0 0 0
0 0 0 0 0 0 0 0 0 0 0 0 0 0 0 0 0 0 0 0 0 0 0 0 0 0 0 0 0 0 0 0 0 0 0 0 0 0 0 0 0 0 0 0 0 0 0 0 0
0 0 0 0 0 0 0 0 0 0 0 0 0 0 0 0 0 0 0 0 0 0 0 0 0 0 0 0 0 0 0 0 0 0 0 0 0 0 0 0 0 0 0 0 0 0 0 0 0
0 0 0 0 0 0 0 0 0 0 0 0 0 0 0 0 0 0 0 0 0 0 0 0 0 0 0 0 0 0 0 0 0 0 0 0 0 0 0 0 0 0 0 0 0 0 0 0 0
0 0 0 0 0 0 0 0 0 0 0 0 0 0 0 0 0 0 0 0 0 0 0 0 0 0 0 0 0 0 0 0 0 0 0 0 0 0 0 0 0 0 0 0 0 0 0 0 0
0 0 0 0 0 0 0 0 0 0 0 0 0 0 0 0 0 0 0 0 0 0 0 0 0 0 0 0 0 0 0 0 0 0 0 0 0 0 0 0 0 0 0 0 0 0 0 0 0
0 0 0 0 0 0 0 0 0 0 0 0 0 0 0 0 0 0 0 0 0 0 0 0 0 0 0 0 0 0 0 0 0 0 0 0 0 0 0 0 0 0 0 0 0 0 0 0 0
0 0 0 0 0 0 0 0 0 0 0 0 0 0 0 0 0 0 0 0 0 0 0 0 0 0 0 0 0 0 0 0 0 0 0 0 0 0 0 0 0 0 0 0 0 0 0 0 0
0 0 0 0 0 0 0 0 0 0 0 0 0 0 0 0 0 0 0 0 0 0 0 0 0 0 0 0 0 0 0 0 0 0 0 0 0 0 0 0 0 0 0 0 0 0 0 0 0
0 0 0 0 0 0 0 0 0 0 0 0 0 0 0 0 0 0 0 0 0 0 0 0 0 0 0 0 0 0 0 0 0 0 0 0 0 0 0 0 0 0 0 0 0 0 0 0 0
0 0 0 0 0 0 0 0 0 0 0 0 0 0 0 0 0 0 0 0 0 0 0 0 0 0 0 1 1 0 0 0 0 0 0 0 0 0 0 0 0 0 0 0 0 0 0 0 0
0 0 0 0 0 0 0 0 0 0 0 0 0 0 0 0 0 0 0 0 0 0 0 0 0 1 2 2 2 1 0 0 0 0 0 0 0 0 0 0 0 0 0 0 0 0 0 0 0
0 0 0 0 0 0 0 0 0 0 0 0 0 0 0 0 0 0 0 0 0 0 1 1 2 5 6 5 3 1 0 1 1 1 1 0 0 0 0 0 0 0 0 0 0 0 0 0 0
0 0 0 0 0 0 0 0 0 0 0 0 0 0 0 0 0 0 0 0 0 0 1 3 6 12 17 14 7 2 2 2 3 3 2 1 0 0 0 0 0 0 0 0 0 0 0 0 0
0 0 0 0 0 0 0 0 0 0 0 0 0 0 0 0 0 0 0 0 0 0 1 3 9 23 38 39 27 16 10 7 7 5 4 2 1 0 0 0 0 0 0 0 0 0 0 0 0
0 0 0 0 0 0 0 0 0 0 0 0 0 0 0 0 0 0 0 0 0 1 1 2 8 27 54 66 58 43 27 16 13 10 5 3 2 0 0 0 0 0 0 0 0 0 0 0 0
0 0 0 0 0 0 0 0 0 0 0 0 0 0 0 0 0 0 0 0 1 2 2 3 5 18 46 70 75 67 49 32 23 19 15 10 5 2 1 0 0 0 0 0 0 0 0 0 0
0 0 0 0 0 0 0 0 0 0 0 0 0 0 0 0 0 0 0 1 2 4 5 5 4 7 24 49 67 70 60 40 27 26 27 21 12 6 3 1 0 0 0 0 0 0 0 0 0
0 0 0 0 0 0 0 0 0 0 0 0 0 0 0 0 0 0 0 1 3 6 9 9 5 3 9 24 40 48 44 30 18 19 24 24 20 14 7 2 1 0 0 0 0 0 0 0 0
0 0 0 0 0 0 0 0 0 0 0 0 0 0 0 0 0 0 0 1 4 7 9 9 6 4 4 7 14 19 18 14 8 8 12 19 25 22 12 4 2 2 2 3 2 1 0 0 0
0 0 0 0 0 0 0 0 0 0 0 0 0 0 0 0 0 0 1 2 3 4 4 4 4 4 3 2 2 4 7 7 4 3 6 12 20 21 13 6 4 5 7 7 6 5 4 2 0
0 0 0 0 0 0 0 0 0 0 0 0 0 0 0 0 0 0 1 1 1 1 1 1 1 1 1 0 0 1 4 4 2 1 3 5 8 9 7 4 4 6 7 6 6 7 7 3 1
0 0 0 0 0 0 0 0 0 0 0 0 0 0 0 0 0 0 0 0 0 0 0 1 2 3 2 1 0 0 1 1 0 0 0 1 1 1 1 1 3 4 3 2 3 5 5 3 1
0 0 0 0 0 0 0 0 0 0 0 0 0 0 0 0 0 0 0 0 0 1 4 7 10 9 6 2 0 0 0 0 0 0 0 0 0 0 0 0 1 2 1 0 1 1 1 1 1
0 0 0 0 0 0 0 0 0 0 0 0 0 0 0 0 0 0 0 0 3 9 19 26 26 22 14 6 1 0 0 0 0 0 0 0 0 0 0 0 1 1 0 0 0 0 0 0 1
0 0 0 0 0 0 0 0 0 0 0 0 0 0 0 0 0 0 0 1 7 23 40 47 43 37 27 13 3 0 0 0 0 0 0 0 0 0 0 0 0 0 0 0 0 0 0 0 1
0 0 0 0 0 0 0 0 0 0 0 0 0 0 0 0 0 0 0 1 11 32 52 56 50 46 37 20 5 1 0 0 0 0 0 0 0 0 0 0 0 0 0 0 0 0 0 0 0
Wind_Speed
4 2 2 4 4 4 8 5 2 2 3 5 4 3 5 7 6 6 6 8 9 12 12 13 11 11 10 10 12 12 12 12 12 11 11 11 11 11 12 11 10 9 9 9 10 10 8 7 7
4 2 3 4 2 6 7 3 2 3 4 4 3 2 3 6 6 7 8 7 9 11 10 11 11 10 10 10 11 12 12 12 11 11 11 10 10 11 11 11 10 9 9 9 9 9 8 8 8
3 3 3 2 2 5 6 4 3 2 4 0 2 3 4 5 5 6 7 10 10 10 9 10 11 10 10 10 11 12 12 11 11 11 11 10 10 11 11 11 10 9 9 8 8 8 8 8 9
3 4 3 2 6 5 4 3 1 4 4 1 0 3 5 5 3 6 10 10 10 10 9 10 10 10 10 10 11 12 12 12 12 11 10 10 10 11 11 11 10 10 9 8 7 6 6 8 9
3 3 3 4 6 5 2 2 0 4 3 2 1 3 6 6 7 9 10 9 10 10 8 10 10 9 9 10 11 13 13 12 12 11 10 10 11 11 11 11 11 10 9 8 7 5 6 8 9
2 3 4 5 6 4 3 2 2 3 2 2 2 2 6 7 7 9 9 8 8 8 8 9 10 8 9 10 11 12 12 12 12 11 11 11 11 12 11 11 11 9 9 9 7 7 9 9 9
3 3 3 5 6 5 3 1 0 1 2 2 2 3 6 8 8 9 9 7 7 7 8 7 10 10 10 10 12 13 12 12 12 11 11 11 11 12 11 12 11 10 10 9 9 10 10 9 8
2 3 4 6 6 4 3 1 1 3 2 3 3 2 5 10 11 10 9 8 7 8 8 8 8 9 10 10 12 13 13 12 12 12 12 12 12 12 12 12 11 11 10 10 11 11 10 9 8
3 5 5 6 7 5 3 2 2 0 2 3 4 2 6 14 13 11 9 9 9 8 7 8 9 9 9 9 12 12 12 12 12 11 12 12 10 11 10 12 12 11 11 11 11 11 10 8 9
4 5 3 3 5 4 2 1 2 3 3 4 6 6 9 14 14 13 12 11 11 10 9 8 8 9 9 8 9 8 9 10 9 9 10 8 8 7 9 13 11 11 11 11 11 10 7 4 5
5 6 3 5 6 3 2 2 3 3 2 3 6 10 12 14 14 13 12 11 10 10 10 9 9 9 9 7 7 6 5 7 8 10 9 6 7 7 8 8 10 9 9 9 10 8 4 5 5
5 6 4 3 4 5 5 3 4 5 2 2 5 10 14 15 14 13 12 10 10 10 10 10 9 9 9 7 6 6 6 6 6 8 9 7 5 6 7 5 7 7 4 5 5 4 6 6 6
9 5 4 5 5 6 6 7 5 6 5 4 7 10 13 13 13 12 10 10 10 11 11 11 11 10 9 7 5 6 5 6 6 5 7 8 6 7 7 6 6 6 6 6 5 5 6 6 7
4 6 6 7 8 7 9 9 8 9 6 8 11 12 13 12 12 11 12 11 11 11 11 11 12 11 10 9 8 6 6 6 6 6 8 9 7 7 7 8 7 6 5 4 5 6 6 5 6
5 7 9 10 10 7 8 12 12 9 7 11 13 13 12 12 12 11 10 10 10 10 10 11 12 12 12 11 10 7 6 7 6 6 8 9 8 8 8 8 9 7 7 7 5 7 5 5 6
6 8 9 7 8 7 9 13 5 0 7 11 13 12 12 12 12 11 9 9 9 9 10 10 10 13 13 11 10 8 8 7 6 6 7 9 10 10 8 7 8 7 7 6 6 6 6 6 5
8 9 9 5 4 5 9 10 4 1 5 10 12 13 13 13 12 10 9 9 9 9 10 11 12 13 13 12 10 9 8 7 6 7 6 8 10 11 9 8 8 9 7 6 7 7 7 6 5
6 9 8 7 3 5 9 10 10 6 7 9 11 13 14 14 11 8 7 7 8 9 10 10 10 11 11 10 9 7 8 7 6 7 7 9 8 10 9 8 10 9 7 6 6 8 7 6 6
8 9 10 8 5 8 12 13 12 10 8 10 12 13 14 12 8 6 6 5 5 5 6 6 8 10 9 7 7 7 7 6 6 7 9 10 9 9 7 6 9 9 8 9 9 8 9 7 7
9 11 11 8 5 8 12 14 13 13 12 12 13 13 14 11 9 9 7 5 3 2 2 4 6 8 9 7 6 5 6 6 7 6 8 10 10 8 6 7 6 8 8 10 10 10 8 7 7
11 11 10 9 11 8 9 14 13 13 11 10 10 10 11 11 11 10 8 5 5 4 4 4 5 7 8 8 5 4 4 4 5 6 7 9 10 9 7 8 8 9 9 9 11 12 12 9 9
11 4 5 8 10 8 6 12 11 11 12 12 11 9 9 10 11 10 8 6 6 6 5 6 6 6 7 8 8 8 6 6 6 5 6 9 11 12 11 12 11 11 10 10 11 13 11 11 10
6 1 2 5 8 12 12 13 10 8 11 10 7 7 9 11 11 10 7 6 6 6 5 6 6 6 6 6 6 6 6 4 3 4 6 7 9 11 13 14 13 13 10 11 12 12 13 11 10
5 3 2 4 7 12 11 10 8 5 4 5 4 4 8 11 11 9 7 7 6 6 6 6 6 6 6 5 5 6 5 4 5 5 5 4 4 6 11 12 12 12 9 10 9 10 13 11 12
8 6 3 4 6 7 2 6 6 4 5 7 7 2 9 11 11 10 9 8 8 7 7 6 7 7 7 7 6 6 5 5 6 5 5 5 4 4 7 9 10 9 8 8 7 7 9 11 12
8 10 8 5 4 3 5 7 2 3 5 5 3 4 9 11 10 9 9 8 8 8 8 7 7 7 6 6 6 5 5 3 3 4 4 4 4 4 6 7 8 9 9 8 8 6 6 8 10
6 7 7 10 9 8 7 5 6 2 1 1 2 6 9 10 10 9 8 8 9 10 10 9 8 7 7 6 5 5 5 4 4 4 4 3 3 4 5 6 6 7 8 9 9 6 6 6 7
7 5 5 7 7 9 7 8 6 3 2 2 2 4 6 7 8 8 8 9 9 10 10 10 9 8 7 6 5 3 4 4 3 4 4 4 5 5 6 7 7 7 7 9 9 8 7 6 4
4 6 8 7 6 7 5 2 2 3 4 4 3 2 1 2 4 5 7 9 10 10 10 11 10 9 8 8 7 6 5 5 5 4 4 5 5 6 7 7 8 8 8 8 8 7 7 6 3
4 5 6 8 9 7 6 4 5 3 4 5 5 4 3 3 4 4 5 7 10 11 11 12 12 11 10 9 8 7 5 5 5 5 5 6 6 7 7 8 8 9 9 9 8 8 7 6 4
Wind_Direction
252 297 259 249 213 97 75 70 54 64 59 58 50 40 33 29 7 39 100 139 144 148 153 158 164 159 152 153 159 160 158 153 150 146 138 135 137 137 132 126 115 105 97 89 82 76 72 75 77
314 282 250 248 177 97 80 55 38 42 74 104 86 41 34 63 51 93 132 137 151 150 156 156 158 162 157 158 161 161 160 157 154 148 140 138 136 135 131 126 116 108 104 99 93 93 96 90 83
267 255 263 220 108 77 78 52 17 93 139 182 76 45 28 55 88 119 130 142 151 148 156 148 163 165 162 162 161 160 159 156 151 146 142 141 136 132 130 127 119 112 107 106 103 102 101 94 86
252 224 226 199 117 89 70 48 20 154 174 210 264 101 83 60 87 116 134 145 144 149 156 149 168 167 167 168 164 159 157 155 149 146 146 142 135 130 130 128 122 115 112 110 109 104 98 100 92
257 251 191 156 125 107 78 17 124 186 181 172 212 90 98 88 100 123 142 148 149 151 154 149 166 170 171 170 165 160 158 155 149 147 145 139 135 132 130 128 121 116 117 118 116 110 111 109 93
253 251 201 161 137 128 126 129 167 223 203 169 193 127 97 116 129 134 140 151 146 145 152 148 158 172 171 168 163 160 159 156 149 146 139 135 134 131 129 125 119 118 121 120 113 109 110 107 92
277 250 208 163 157 153 112 61 313 292 222 188 196 141 126 140 138 143 142 140 136 143 152 155 158 167 169 166 164 161 158 154 150 145 139 135 134 132 128 121 123 127 127 121 115 110 108 102 89
299 252 198 186 185 153 123 156 39 334 39 106 196 176 138 151 149 150 145 146 149 156 161 162 162 160 161 164 164 161 157 154 149 143 140 136 133 133 131 131 129 131 127 122 120 111 107 97 86
259 247 227 199 197 157 140 155 122 328 131 161 187 60 89 138 153 158 158 163 164 169 171 167 162 159 159 160 156 160 155 153 151 147 145 152 155 146 154 121 132 127 119 119 121 111 107 110 100
244 256 249 195 194 157 140 223 170 200 174 171 166 136 133 152 167 174 178 177 175 175 175 176 169 163 164 160 156 166 160 160 166 156 160 171 151 151 125 124 134 123 119 123 119 119 145 183 116
238 259 261 198 195 206 218 221 213 231 176 169 171 166 162 173 182 188 189 184 178 175 173 180 177 173 166 163 166 166 160 167 168 166 167 174 151 151 144 151 147 143 155 136 140 165 109 84 76
248 257 264 230 187 217 221 225 222 239 255 150 156 158 172 185 193 197 195 186 179 179 180 180 184 177 178 172 170 173 166 173 173 177 175 174 169 169 159 165 155 156 151 142 147 117 103 92 95
240 259 249 244 230 239 237 235 250 249 230 201 175 171 183 193 199 200 199 190 189 185 188 185 190 186 180 179 177 186 181 174 178 183 187 182 177 183 168 169 163 169 156 155 150 140 106 92 80
275 264 257 250 237 235 240 242 241 251 214 197 190 188 192 198 204 201 201 201 200 195 195 188 192 191 187 184 189 192 182 179 184 187 202 191 185 188 180 173 169 169 163 159 159 135 124 110 95
257 259 248 235 231 233 246 250 242 252 212 204 202 199 199 204 208 215 212 213 211 205 204 196 198 196 195 196 193 191 194 185 185 193 204 200 192 190 190 180 176 171 169 166 160 137 129 117 117
239 242 243 219 226 220 234 253 247 192 212 216 214 209 208 214 221 221 225 228 224 219 218 207 202 204 200 198 195 193 198 190 181 193 205 207 200 195 190 186 184 178 176 165 157 159 152 144 144
228 242 247 220 208 221 236 257 236 191 236 232 224 221 216 220 224 226 230 236 238 236 229 219 214 212 205 200 201 198 198 192 183 191 198 211 213 200 187 193 189 183 187 176 172 171 163 155 151
270 266 259 251 222 257 254 259 266 254 244 249 238 230 222 226 221 216 223 238 244 244 243 234 222 220 208 201 206 197 206 201 192 191 193 203 218 214 194 196 200 191 185 186 182 174 168 161 165
295 285 275 276 289 283 270 267 264 262 239 245 243 235 227 222 206 195 206 214 227 232 241 230 222 212 203 196 199 196 203 205 207 201 199 192 202 213 205 214 213 201 194 193 191 181 173 174 171
260 265 269 275 294 297 281 274 268 262 255 251 253 241 226 211 199 194 191 178 179 175 188 199 197 197 195 195 201 203 197 207 212 209 200 191 186 189 200 215 229 218 211 205 198 186 183 177 189
256 259 274 294 309 279 284 273 259 256 249 243 246 250 236 209 204 188 180 163 148 143 152 165 175 182 189 184 181 181 176 191 197 203 198 193 183 176 185 209 226 235 223 211 202 192 189 185 198
261 272 294 300 299 287 282 287 277 272 261 246 240 231 220 201 197 180 172 161 144 129 137 147 162 174 179 183 196 204 207 212 217 206 196 195 192 191 195 207 218 228 230 221 207 202 196 190 194
247 75 315 296 286 279 264 271 278 270 266 263 255 233 211 193 186 175 166 153 133 123 123 130 145 157 170 193 206 227 234 233 221 211 205 200 195 202 205 210 213 220 222 223 213 206 200 196 198
186 163 260 263 266 261 261 268 282 279 302 318 324 234 196 183 177 168 158 158 145 132 130 135 141 139 155 178 197 212 208 209 204 209 212 205 199 208 212 211 212 212 210 214 210 205 205 204 204
217 227 240 227 224 249 235 258 275 330 335 318 311 234 177 175 173 173 175 177 168 160 155 155 153 151 162 177 186 195 198 218 220 212 210 209 206 208 217 211 208 203 196 192 184 192 203 211 214
229 236 244 261 247 225 205 247 276 351 315 311 305 177 169 176 183 185 186 185 182 177 175 175 170 165 168 188 187 195 188 211 225 220 215 206 211 210 210 206 202 194 184 175 168 168 191 210 219
233 227 264 272 271 269 252 251 280 276 322 30 96 159 179 190 197 200 197 195 191 188 187 185 181 177 180 189 186 196 187 195 201 209 208 198 204 198 194 187 180 176 174 169 160 159 175 199 220
281 280 225 243 257 254 248 246 249 263 27 56 115 165 194 212 219 214 208 208 203 198 192 187 187 183 182 190 193 194 195 183 189 196 196 196 196 191 183 177 168 164 166 162 155 152 161 175 206
266 244 252 258 267 270 270 224 41 15 19 12 22 47 17 287 266 250 227 218 211 203 194 189 186 187 185 190 192 195 191 187 188 192 190 192 190 186 186 179 173 163 159 156 148 144 147 156 184
285 304 285 268 262 267 278 273 67 8 1 6 9 23 18 356 338 307 267 236 217 209 201 195 190 184 186 189 191 200 190 190 201 193 191 190 189 192 196 185 179 171 165 161 156 153 152 157 185